Volver al catálogo

STARLINK-33588

ActivoComunicacionesVLEO
NORAD 62781·PAYLOAD·🇺🇸 United States

Lanzado Jan 21, 2025 desde Vandenberg Space Force Base

Loading…

Próximos Pases (próximas 24 horas)

TLE

ActualizadoSource: CelesTrak SupGP

Época: Sep 14, 2026, 21:23 UTC

1 62781C 25015Z   26257.89145833 -.00060043  00000+0 -17735-2 0  2576
2 62781  53.1579 157.7559 0001275  97.2140 159.7159 15.34428503    16

Sigue STARLINK-33588 en tiempo real con AllMySat

Download on the App Store